Location: Peebles
(55.6412°N, 3.1714°W)
Time: 18:53:40
(UTC+00:00)

ISS - Visible Passes

Search period start: 20 January 2018 00:00
Search period end: 30 January 2018 00:00
Orbit: 402 x 407 km, 51.6° (Epoch: 21 January)

Date Brightness Start Highest point End Pass type
(mag) Time Alt. Az. Time Alt. Az. Time Alt. Az.
27 Jan -1.3 18:38:34 10° SSE 18:39:08 11° SSE 18:39:08 11° SSE visible
28 Jan -1.5 19:20:38 10° SSW 19:21:45 17° SSW 19:21:45 17° SSW visible
29 Jan -2.0 18:28:50 10° SSW 18:31:10 18° SSE 18:31:37 18° SE visible
29 Jan -0.6 20:04:02 10° WSW 20:04:17 12° WSW 20:04:17 12° WSW visible
